This is the latest recevied weather packets stored in our database for station/object KB9MLJ. If no packets are shown the sender has not sent any weather packets the latest 10 day(s).
| Time | Temp. | Humidity | Pressure | Rain* | Wind** | Luminosity | Snow |
|---|---|---|---|---|---|---|---|
| 1777752616 | 12.78° C | 40% | 1018.2 hPa | 0 mm | - | 647 W/m² | - |
| 1777752313 | 12.22° C | 43% | 1018.2 hPa | 0 mm | - | 642 W/m² | - |
| 1777752011 | 12.78° C | 41% | 1018.5 hPa | 0 mm | - | 636 W/m² | - |
| 1777751708 | 12.22° C | 42% | 1018.5 hPa | 0 mm | - | 517 W/m² | - |
| 1777751403 | 12.22° C | 43% | 1018.5 hPa | 0 mm | - | 499 W/m² | - |
| 1777751101 | 11.67° C | 43% | 1018.5 hPa | 0 mm | - | 392 W/m² | - |
| 1777750796 | 12.22° C | 42% | 1018.5 hPa | 0 mm | - | 741 W/m² | - |
| 1777750494 | 11.11° C | 42% | 1018.5 hPa | 0 mm | - | 527 W/m² | - |
| 1777750189 | 11.11° C | 43% | 1018.9 hPa | 0 mm | - | 246 W/m² | - |
| 1777749886 | 11.11° C | 43% | 1018.5 hPa | 0 mm | - | 185 W/m² | - |
| 1777749583 | 11.11° C | 42% | 1018.9 hPa | 0 mm | - | 742 W/m² | - |
| 1777749281 | 12.22° C | 43% | 1018.9 hPa | 0 mm | - | 206 W/m² | - |
| 1777748978 | 11.11° C | 43% | 1018.9 hPa | 0 mm | - | 783 W/m² | - |
| 1777748676 | 11.11° C | 44% | 1018.9 hPa | 0 mm | - | 224 W/m² | - |
| 1777748372 | 11.11° C | 42% | 1018.9 hPa | 0 mm | - | 266 W/m² | - |
| 1777748067 | 11.67° C | 42% | 1019.2 hPa | 0 mm | - | 264 W/m² | - |
| 1777747765 | 10.56° C | 45% | 1019.2 hPa | 0 mm | - | 826 W/m² | - |
| 1777747460 | 11.11° C | 43% | 1019.2 hPa | 0 mm | - | 201 W/m² | - |
| 1777747157 | 11.11° C | 42% | 1018.9 hPa | 0 mm | - | 203 W/m² | - |
| 1777746853 | 10.56° C | 46% | 1018.9 hPa | 0 mm | - | 287 W/m² | - |
| 1777746549 | 10.56° C | 44% | 1019.2 hPa | 0 mm | - | 204 W/m² | - |
| 1777746244 | 10.56° C | 43% | 1018.9 hPa | 0 mm | - | 236 W/m² | - |
| 1777745940 | 11.11° C | 45% | 1019.2 hPa | 0 mm | - | 222 W/m² | - |
| 1777745639 | 10.56° C | 45% | 1019.2 hPa | 0 mm | - | 246 W/m² | - |
| 1777745337 | 11.11° C | 44% | 1019.2 hPa | 0 mm | - | 669 W/m² | - |
* Rain latest hour (hover to see other rain measurements)
** Current wind speed in m/s (hover to see current wind gust speed)